Loisir ou Compétition : Rejoignez un Club de la Fédération

Résultats

38e Grand-Prix du Pays Rochois

LES GLIERES

KO-QLF Hommes

Jury de Compétition

Délégué Technique :
DOMENGE JEAN NOEL (MB)
D.T. Adjoint :
OLLIVIER PLAUD ALIX (MB)
Dir. Epreuve :
ROGUET JEAN CLAUDE (MB)

Caractéristiques de la Piste

Piste :
PLATEAU DES GLIERES
Distance :
2.4 km
Point Haut :
 
Point Bas :
 
Montée Tot. :
 
Montée Max. :
 
Homologation :
2018-33-1

Pénalité Appliquée :
 
Coefficient :
 

Catégorie :
U15
Style :
L
Clt Dos Clt/Cat Code An Nom Prénom Com Club Temps Ecart Points
Classés
1 161 1/U15 FFS2686938 2005 VALLEIX JORIS MB SCNP ROCHOIS 4:19.61 00.00
2 164 2/U15 FFS2667744 2005 BIZZOCCHI ESTEBAN MB SC D'AGY 4:19.70 00.09
3 162 3/U15 FFS2686242 2005 VIGUIER QUENTIN MB CS LA CLUSAZ 4:25.30 05.69
4 167 4/U15 FFS2671565 2005 COLOMBAN ALEXIS MB SCNP ROCHOIS 4:29.38 09.77
5 169 5/U15 FFS2686793 2005 MARIE ADELIN MB SC D'AGY 4:29.91 10.30
6 163 6/U15 FFS2676910 2005 CLAVEL SIMON MB CS LA CLUSAZ 4:31.64 12.03
7 160 7/U15 FFS2686681 2005 DELOCHE LINO MB SC GD BORNAN 4:33.05 13.44
8 165 8/U15 FFS2686663 2005 PERRILLAT BOITEUX ANTHONY MB SC GD BORNAN 4:33.74 14.13
9 173 9/U15 FFS2691996 2006 CALANDRY JOHAN MB DRAGONS ANNY 4:43.90 24.29
10 188 10/U15 FFS2693695 2006 PINGET LORIS MB VILLARD/BOEG 4:45.12 25.51
11 168 11/U15 FFS2686695 2005 PERRILLAT BOTTONET JUDICA MB SC GD BORNAN 4:45.64 26.03
12 180 12/U15 FFS2692252 2006 MENCIER ARTHUR MB SCNP ROCHOIS 4:46.26 26.65
13 179 13/U15 FFS2670538 2006 SEIGNEUR NOE MB VILLARD/BOEG 4:46.75 27.14
14 170 14/U15 FFS2686939 2005 GRENARD MAX MB SCNP ROCHOIS 4:47.98 28.37
15 166 15/U15 FFS2681171 2005 LUZET HUGO MB CS LA CLUSAZ 4:48.96 29.35
16 185 16/U15 FFS2686538 2005 JOMIER LOIS MB DRAGONS ANNY 4:51.38 31.77
17 174 17/U15 FFS2692545 2006 BIANCOLLI LUIGI MB CNG 4:52.27 32.66
18 233 18/U15 FFS2675566 2006 GARDONI SILVIO LY SC LOMPNES 4:54.07 34.46
19 176 19/U15 FFS2691553 2006 LESPINE QUENTIN MB SC GD BORNAN 4:54.45 34.84
20 181 20/U15 FFS2686795 2005 DELERCE THIBAULT MB SC D'AGY 4:54.65 35.04
21 191 21/U15 FFS2692552 2005 PETROD BASTIEN MB CNG 4:56.62 37.01
22 186 22/U15 FFS2696947 2006 BOUCHEX BELLOMIE KLEO MB CS MEGEVE 4:56.69 37.08
23 183 23/U15 FFS2681175 2006 MERMILLOD BLARDET CYPRIEN MB CS LA CLUSAZ 4:56.94 37.33
24 171 24/U15 FFS2666324 2005 FAVRE FELIX KILLIAN MB SC GD BORNAN 4:58.28 38.67
25 182 25/U15 FFS2686539 2005 LACROIX MATTHIAS MB DRAGONS ANNY 4:58.53 38.92
26 192 26/U15 FFS2696623 2006 LAVY ARTHUR MB DRAGONS ANNY 4:58.75 39.14
27 196 27/U15 FFS2690844 2005 HAEBERLI ARTHUR MB CS LA CLUSAZ 5:02.07 42.46
28 172 28/U15 FFS2686542 2005 PEYRET TILIEN MB DRAGONS ANNY 5:03.38 43.77
29 184 29/U15 FFS2697607 2006 ALLOT CAUCHARD BASILE MB CNG 5:03.41 43.80
30 226 30/U15 FFS2671164 2006 MESER BALET NATHAN MB VILLARD/BOEG 5:04.08 44.47
31 178 31/U15 FFS2666342 2005 OUVRIER BUFFET JULES MB CS LA CLUSAZ 5:04.22 44.61
32 195 32/U15 FFS2674953 2006 BETEND BAPTISTE MB CS ARGENTIER 5:04.45 44.84
33 201 33/U15 FFS2672036 2006 BIZZOCCHI ENNIO MB SC D'AGY 5:04.66 45.05
34 187 34/U15 FFS2692554 2005 ZAVARISE NOAH MB CNG 5:06.11 46.50
35 202 35/U15 FFS2687102 2005 SYLVESTRE BARON PAUL MB SCNP ROCHOIS 5:06.18 46.57
36 205 36/U15 FFS2691437 2006 GANDIGLIO TIBO MB PRAZ LYS-SOM 5:09.07 49.46
37 175 37/U15 FFS2691557 2006 PERRILLAT COLLOMB MARIO MB SC GD BORNAN 5:13.54 53.93
38 193 38/U15 FFS2687035 2005 CORNU MATHIEU MB CS CHAMONIX 5:13.58 53.97
39 190 39/U15 FFS2686543 2005 ROMERI NATHAN MB DRAGONS ANNY 5:14.62 55.01
40 200 40/U15 FFS2679388 2006 GILARDONI LOUISON MB CS MEGEVE 5:14.92 55.31
41 177 41/U15 FFS2691997 2006 FAVRE NILS MB DRAGONS ANNY 5:15.26 55.65
42 198 42/U15 FFS2687749 2006 PEALA NILS MB DRAGONS ANNY 5:15.39 55.78
43 199 43/U15 FFS2691998 2006 LOYER ARMAN MB DRAGONS ANNY 5:16.06 56.45
44 211 44/U15 FFS2690481 2005 THABUIS BASILE MB VILLARD/BOEG 5:19.08 59.47
45 208 45/U15 FFS2693694 2006 MARTIN LUBIN MB VILLARD/BOEG 5:20.20 1:00.59
46 189 46/U15 FFS2669077 2006 BOUCHEX BELLOMIE JEREMIE MB CS MEGEVE 5:20.66 1:01.05
47 222 47/U15 FFS2703750 2006 DUVILLIER ROMAIN MB LES GETS S.C 5:21.31 1:01.70
48 220 48/U15 FFS2702394 2006 BOLLARD ROMAIN MB CNG 5:22.06 1:02.45
49 194 49/U15 FFS2696236 2005 MONGELLAZ JULES MB SC CONTAMINE 5:22.14 1:02.53
50 216 50/U15 FFS2688574 2006 TOCQUEVILLE LOUIS MB CS LA CLUSAZ 5:22.21 1:02.60
51 207 51/U15 FFS2680344 2005 DELERCE GASPARD MB LES GETS S.C 5:22.37 1:02.76
52 210 52/U15 FFS2681304 2005 PERSONNAZ LOAN MB DRAGONS ANNY 5:23.80 1:04.19
53 215 53/U15 FFS2675891 2006 ROUX MATHIS MB CS MEGEVE 5:24.01 1:04.40
54 203 54/U15 FFS2672513 2006 HUDRY VALENTIN MB SC GD BORNAN 5:24.16 1:04.55
55 197 55/U15 FFS2688043 2005 MAGNIEZ OSCAR MB DRAGONS ANNY 5:24.34 1:04.73
56 206 56/U15 FFS2691548 2006 GODINAT ETHAN MB SC GD BORNAN 5:26.66 1:07.05
57 225 57/U15 FFS2679226 2006 GRZELAK AYMERIC MB CS MEGEVE 5:26.80 1:07.19
58 212 58/U15 FFS2686260 2005 BOSSUT AUGUSTIN MB PRAZ LYS-SOM 5:27.88 1:08.27
59 213 59/U15 FFS2678687 2005 MILLET DIWAN MB SCNP ROCHOIS 5:28.19 1:08.58
60 224 60/U15 FFS2691439 2006 PATRY YANIS MB PRAZ LYS-SOM 5:28.28 1:08.67
61 204 61/U15 FFS2686940 2005 LEVET PROSPER MB SCNP ROCHOIS 5:32.27 1:12.66
62 214 62/U15 FFS2687034 2005 FIVEL DEMORET HUGO MB SC CONTAMINE 5:33.30 1:13.69
63 223 63/U15 FFS2702100 2006 NOZIN KILIAN MB SCNP ROCHOIS 5:34.18 1:14.57
64 219 64/U15 FFS2701302 2006 DEXPERT MALO MB SC GD BORNAN 5:34.61 1:15.00
65 217 65/U15 FFS2691561 2006 REMONT HUGO MB SC GD BORNAN 5:36.75 1:17.14
66 218 66/U15 FFS2676738 2005 CHETAIL JULES MB CS MEGEVE 5:36.85 1:17.24
67 236 67/U15 FFS2692694 2006 BLANCHET CACHAT ROSSET AL MB SC D'AGY 5:40.37 1:20.76
68 230 68/U15 FFS2687856 2005 VEISY KILLIAN MB EN HT GIFFRE 5:41.45 1:21.84
69 209 69/U15 FFS2687103 2005 MOREAU SIMEON MB SCNP ROCHOIS 5:42.17 1:22.56
70 237 70/U15 FFS2693692 2006 JACQUELINE LEO MB VILLARD/BOEG 5:43.41 1:23.80
71 221 71/U15 FFS2689955 2006 BREMOND NATHAN MB SC GD BORNAN 5:45.27 1:25.66
72 228 72/U15 FFS2686033 2006 CABRERA GAEL MB CS ARGENTIER 5:46.99 1:27.38
73 229 73/U15 FFS2682273 2006 SORDET JULES MB VILLARD/BOEG 5:49.42 1:29.81
74 227 74/U15 FFS2690468 2006 DELEVAUX TOMMY MB CS CHAMONIX 5:55.75 1:36.14
75 234 75/U15 FFS2691434 2006 BOUCHET MAEL MB PRAZ LYS-SOM 5:58.12 1:38.51
76 231 76/U15 FFS2692777 2006 MARUZZI LEO MB CS ARGENTIER 6:09.38 1:49.77
77 235 77/U15 FFS2692110 2006 BERGOMI FABIO MB CS CHAMONIX 6:25.35 2:05.74
78 239 78/U15 FFS2699088 2006 DELAY TIMOTHEE MB SC D'AGY 6:37.82 2:18.21